Weather in Volovets

Ukraine / Zakarpattia District     48˚42′51″N   23˚11′23″E
temp.,
°C
wind,
m/s
gust,
m/s
humid.,
%
clouds,
%
prec.,
mm/h
press.,
hPa
HPBL,
m
2 december, wed
wed223:00−5˚ene11620 0.0 102621
02:00−5˚ne11600 0.0 102621
05:00−6˚ne11570 0.0 102621
08:00−6˚ne11560 0.0 102621
11:00−2˚ene11420 0.0 1025158
14:00ssw11350 0.0 1023306
17:00−4˚se11480 0.0 102321
20:00−4˚ese11470 0.0 102221
3 december, thu
thu323:00−4˚s114628 0.0 102221
02:00−4˚se124835 0.0 102121
05:00−4˚se11612 0.0 101921
08:00−4˚ese126225 0.0 101821
11:00+1˚sse124144 0.0 101771
14:00+3˚se124272 0.0 101547
17:00+1˚se1250100 0.0 101422
20:00se125482 0.0 101422
4 december, fri
fri423:00+1˚ese225878 0.0 101322
02:00+1˚se125789 0.0 101222
05:00+1˚ese126098 0.0 101122
08:00+1˚ese126381 0.0 101122
11:00+5˚sse235711 0.0 101191
14:00+6˚sse23586 0.0 101087
17:00+1˚sse227150 0.0 101122
20:00+1˚se228071 0.0 101229
5 december, sat
sat523:00+1˚se228634 0.0 101223
02:00+2˚se228717 0.0 101225
05:00+2˚se22870 0.0 101222
08:00+2˚ese12880 0.0 101322
11:00+6˚se22790 0.0 101385
14:00+7˚se22800 0.0 101363
17:00+3˚se22881 0.0 101322
20:00+2˚se228810 0.0 101422
6 december, sun
sun623:00+3˚se228821 0.0 101522
02:00+2˚se228844 0.0 101522
05:00+2˚ese228890 0.0 101522
08:00+2˚e128787 0.0 101422
11:00+6˚ese117815 0.0 101450
14:00+7˚ese128237 0.0 101233
17:00+3˚e128915 0.0 101022
20:00+2˚e12908 0.0 101122